Hourly Weather Lugi

Today, 18 May, Tuesday

Time Temperature Precipitation Wind Pressure Humidity
00:00 +10°C° 0 mm 4 mps 746 mmHg 93%
01:00 +9°C° 0 mm 5 mps 747 mmHg 93%
02:00 +8°C° 0 mm 5 mps 747 mmHg 93%
03:00 +8°C° 0 mm 5 mps 747 mmHg 93%
04:00 +7°C° 0 mm 5 mps 747 mmHg 93%
05:00 +8°C° 0 mm 5 mps 747 mmHg 92%
06:00 +9°C° 0 mm 5 mps 748 mmHg 90%
07:00 +9°C° 0 mm 5 mps 748 mmHg 89%
08:00 +10°C° 0.1 mm 5 mps 748 mmHg 85%
09:00 +12°C° 0.1 mm 5 mps 748 mmHg 81%
10:00 +13°C° 0.1 mm 5 mps 748 mmHg 77%
11:00 +13°C° 0.2 mm 6 mps 748 mmHg 76%
12:00 +14°C° 0.2 mm 6 mps 749 mmHg 75%
13:00 +14°C° 0.2 mm 6 mps 749 mmHg 75%
14:00 +14°C° 0.1 mm 6 mps 749 mmHg 73%
15:00 +15°C° 0.1 mm 6 mps 749 mmHg 71%
16:00 +15°C° 0.1 mm 5 mps 749 mmHg 69%
17:00 +14°C° 0.1 mm 4 mps 749 mmHg 74%
18:00 +13°C° 0.1 mm 4 mps 749 mmHg 78%
19:00 +12°C° 0.1 mm 3 mps 749 mmHg 82%
20:00 +11°C° 0 mm 3 mps 750 mmHg 86%
21:00 +10°C° 0 mm 3 mps 750 mmHg 90%
22:00 +9°C° 0 mm 3 mps 750 mmHg 94%
23:00 +8°C° 0.1 mm 3 mps 750 mmHg 94%

Tomorrow, 19 May, Wednesday

Time Temperature Precipitation Wind Pressure Humidity
00:00 +7°C° 0.1 mm 4 mps 750 mmHg 95%
01:00 +7°C° 0.1 mm 4 mps 750 mmHg 96%
02:00 +7°C° 0 mm 4 mps 751 mmHg 96%
03:00 +7°C° 0 mm 4 mps 751 mmHg 96%
04:00 +6°C° 0 mm 4 mps 751 mmHg 96%
05:00 +7°C° 0 mm 4 mps 751 mmHg 93%
06:00 +8°C° 0 mm 4 mps 751 mmHg 90%
07:00 +10°C° 0 mm 4 mps 751 mmHg 88%
08:00 +10°C° 0.1 mm 4 mps 752 mmHg 86%
09:00 +11°C° 0.1 mm 4 mps 752 mmHg 85%
10:00 +10°C° 0.1 mm 5 mps 752 mmHg 84%
11:00 +12°C° 0.3 mm 5 mps 752 mmHg 80%
12:00 +13°C° 0.3 mm 5 mps 752 mmHg 76%
13:00 +13°C° 0.3 mm 6 mps 752 mmHg 72%
14:00 +13°C° 0.3 mm 6 mps 752 mmHg 76%
15:00 +11°C° 0.3 mm 6 mps 752 mmHg 79%
16:00 +10°C° 0.3 mm 6 mps 752 mmHg 82%
17:00 +10°C° 0 mm 5 mps 753 mmHg 83%
18:00 +10°C° 0 mm 4 mps 753 mmHg 84%
19:00 +10°C° 0 mm 3 mps 753 mmHg 86%
20:00 +9°C° 0 mm 3 mps 753 mmHg 87%
21:00 +8°C° 0 mm 3 mps 753 mmHg 89%
22:00 +8°C° 0 mm 2 mps 753 mmHg 91%
23:00 +8°C° 0 mm 2 mps 753 mmHg 90%

Day after tomorrow, 20 May, Thursday

Time Temperature Precipitation Wind Pressure Humidity
00:00 +8°C° 0 mm 2 mps 754 mmHg 88%
01:00 +8°C° 0 mm 2 mps 754 mmHg 87%
02:00 +7°C° 0 mm 2 mps 754 mmHg 89%
03:00 +6°C° 0 mm 2 mps 754 mmHg 91%
04:00 +6°C° 0 mm 2 mps 754 mmHg 93%
05:00 +7°C° 0 mm 3 mps 755 mmHg 88%
06:00 +9°C° 0 mm 3 mps 755 mmHg 84%
07:00 +10°C° 0 mm 3 mps 755 mmHg 80%
08:00 +11°C° 0.2 mm 3 mps 755 mmHg 76%
09:00 +13°C° 0.2 mm 4 mps 755 mmHg 73%
10:00 +14°C° 0.2 mm 4 mps 755 mmHg 69%
11:00 +14°C° 0.3 mm 5 mps 755 mmHg 69%
12:00 +14°C° 0.3 mm 5 mps 755 mmHg 69%
13:00 +14°C° 0.3 mm 6 mps 756 mmHg 68%
14:00 +14°C° 0.1 mm 6 mps 756 mmHg 67%
15:00 +14°C° 0.1 mm 6 mps 756 mmHg 66%
16:00 +14°C° 0.1 mm 6 mps 756 mmHg 65%
17:00 +13°C° 0 mm 5 mps 756 mmHg 68%
18:00 +12°C° 0 mm 4 mps 756 mmHg 72%
19:00 +11°C° 0 mm 4 mps 756 mmHg 75%
20:00 +10°C° 0 mm 3 mps 757 mmHg 80%
21:00 +8°C° 0 mm 3 mps 757 mmHg 84%
22:00 +7°C° 0 mm 2 mps 757 mmHg 89%
23:00 +7°C° 0 mm 3 mps 757 mmHg 91%

21 May, Friday

Time Temperature Precipitation Wind Pressure Humidity
00:00 +5°C° 0 mm 3 mps 757 mmHg 92%
01:00 +5°C° 0 mm 3 mps 757 mmHg 93%
02:00 +4°C° 0 mm 3 mps 757 mmHg 94%
03:00 +4°C° 0 mm 3 mps 757 mmHg 95%
04:00 +5°C° 0 mm 2 mps 757 mmHg 95%
05:00 +5°C° 0 mm 3 mps 757 mmHg 91%
06:00 +8°C° 0 mm 3 mps 757 mmHg 87%
07:00 +9°C° 0 mm 3 mps 757 mmHg 83%
08:00 +11°C° 0.1 mm 3 mps 757 mmHg 78%
09:00 +12°C° 0.1 mm 3 mps 756 mmHg 72%
10:00 +14°C° 0.1 mm 4 mps 756 mmHg 66%
11:00 +16°C° 0.1 mm 3 mps 755 mmHg 61%
12:00 +17°C° 0.1 mm 3 mps 755 mmHg 56%
13:00 +17°C° 0.1 mm 3 mps 755 mmHg 51%
14:00 +18°C° 0 mm 3 mps 754 mmHg 52%
15:00 +18°C° 0 mm 2 mps 754 mmHg 53%
16:00 +18°C° 0 mm 2 mps 753 mmHg 54%
17:00 +17°C° 0 mm 2 mps 753 mmHg 61%
18:00 +15°C° 0 mm 2 mps 753 mmHg 67%
19:00 +14°C° 0 mm 2 mps 752 mmHg 74%
20:00 +13°C° 0 mm 2 mps 752 mmHg 76%
21:00 +12°C° 0 mm 3 mps 752 mmHg 78%
22:00 +11°C° 0 mm 3 mps 751 mmHg 80%
23:00 +10°C° 0 mm 3 mps 751 mmHg 80%

22 May, Saturday

Time Temperature Precipitation Wind Pressure Humidity
00:00 +10°C° 0 mm 3 mps 750 mmHg 80%
01:00 +9°C° 0 mm 3 mps 750 mmHg 80%
02:00 +9°C° 0 mm 3 mps 749 mmHg 79%
03:00 +10°C° 0 mm 4 mps 749 mmHg 78%
04:00 +10°C° 0 mm 4 mps 748 mmHg 77%
05:00 +11°C° 0 mm 4 mps 748 mmHg 76%
06:00 +12°C° 0 mm 4 mps 748 mmHg 76%
07:00 +13°C° 0 mm 4 mps 748 mmHg 75%
08:00 +14°C° 0 mm 4 mps 748 mmHg 72%
09:00 +15°C° 0 mm 5 mps 748 mmHg 70%
10:00 +16°C° 0 mm 6 mps 749 mmHg 67%
11:00 +16°C° 0.3 mm 6 mps 749 mmHg 68%
12:00 +16°C° 0.3 mm 6 mps 749 mmHg 69%
13:00 +15°C° 0.3 mm 6 mps 749 mmHg 69%
14:00 +15°C° 0.2 mm 5 mps 749 mmHg 68%
15:00 +15°C° 0.2 mm 5 mps 749 mmHg 67%
16:00 +15°C° 0.2 mm 4 mps 749 mmHg 66%
17:00 +13°C° 0 mm 3 mps 749 mmHg 68%
18:00 +12°C° 0 mm 3 mps 749 mmHg 71%
19:00 +12°C° 0 mm 2 mps 749 mmHg 73%
20:00 +10°C° 0 mm 2 mps 750 mmHg 75%
21:00 +9°C° 0 mm 3 mps 750 mmHg 77%
22:00 +9°C° 0 mm 3 mps 750 mmHg 79%
23:00 +8°C° 0 mm 3 mps 750 mmHg 80%

23 May, Sunday

Time Temperature Precipitation Wind Pressure Humidity
00:00 +8°C° 0 mm 3 mps 750 mmHg 81%
01:00 +7°C° 0 mm 3 mps 750 mmHg 82%
02:00 +7°C° 0 mm 3 mps 750 mmHg 83%
03:00 +5°C° 0 mm 3 mps 750 mmHg 84%
04:00 +5°C° 0 mm 3 mps 750 mmHg 85%
05:00 +8°C° 0 mm 3 mps 750 mmHg 80%
06:00 +10°C° 0 mm 3 mps 750 mmHg 76%
07:00 +12°C° 0 mm 4 mps 750 mmHg 71%
08:00 +13°C° 0 mm 4 mps 750 mmHg 66%
09:00 +14°C° 0 mm 4 mps 750 mmHg 62%
10:00 +15°C° 0 mm 5 mps 750 mmHg 58%
11:00 +15°C° 0.1 mm 5 mps 750 mmHg 60%
12:00 +15°C° 0.1 mm 4 mps 751 mmHg 61%
13:00 +15°C° 0.1 mm 4 mps 751 mmHg 63%
14:00 +15°C° 0.2 mm 4 mps 751 mmHg 61%
15:00 +17°C° 0.2 mm 4 mps 751 mmHg 59%
16:00 +17°C° 0.2 mm 4 mps 751 mmHg 57%
17:00 +16°C° 0.1 mm 3 mps 751 mmHg 63%
18:00 +13°C° 0.1 mm 3 mps 752 mmHg 70%
19:00 +13°C° 0.1 mm 2 mps 752 mmHg 76%
20:00 +11°C° 0 mm 3 mps 753 mmHg 78%
21:00 +10°C° 0 mm 3 mps 753 mmHg 79%
22:00 +9°C° 0 mm 3 mps 754 mmHg 80%
23:00 +8°C° 0 mm 3 mps 754 mmHg 84%
Show more

We Need Your Consent

Meteoprog and our Service Providers may store and access personal data such as cookies, device identifiers or other similar technologies on your device and process such data to personalise content and ads, as well as provide social media features and to analyse the traffic.

  • Store and/or access information on your device

    Cookies, device identifiers or other information can be stored or accessed on your device for the purposes indicated above.

  • Personalised ads and content, ad and content measurement, audience insights, and products development

    Ads and content can be personalised based on a profile. More data can be added to better personalise ads and content. Ad and content performance can be measured. Insights about the audience who saw the ads and content can be derived. Such data can be used to develop or improve user’s experience, systems and software.

By clicking ‘I Agree’ you will allow the use of indicated cookies, device identifiers, web beacons or other similar technologies. Your settings can be changed in the browser on your device.

For certain purposes, legitimate interests may be relied on, rather than consent. You can read more about this in our Privacy and Cookie Policy.